Weather History for Nagpur Sonegaon, India

Change the Weather History Date:

Friday, September 27, 2013

  Actual Average Record
Temperature  
Mean Temperature 83 °F -  
Max Temperature 92 °F 91 °F - ()
Min Temperature 74 °F 69 °F - ()
Cooling Degree Days 18    
Growing Degree Days 33 (Base 50)    
Moisture  
Dew Point 76 °F    
Average Humidity 80    
Maximum Humidity 94    
Minimum Humidity 59    
Precipitation  
Precipitation 0.00 in 0.11 in - ()
Sea Level Pressure  
Sea Level Pressure 29.79 in    
Wind  
Wind Speed 3 mph ()    
Max Wind Speed 9 mph    
Max Gust Speed -    
Visibility 2.8 miles    
Events      
T = Trace of Precipitation, MM = Missing Value Source: Averaged Metar Reports

Daily Weather History Graph

Daily Weather History Graph

Search for Another Location

Airport:

Trip Planner

Search our weather history database for the weather conditions in past years. The results will help you decide how hot, cold, wet, or windy it might be!

Date:

Astronomy

Sep. 27, 2013 Rise Set
Actual Time 6:03 AM IST 6:05 PM IST
Civil Twilight 5:41 AM IST 6:27 PM IST
Nautical Twilight 5:15 AM IST 6:53 PM IST
Astronomical Twilight 4:50 AM IST 7:19 PM IST
Moon 12:06 AM IST (9/28) 12:43 PM IST (9/27)
Length of Visible Light 12h 45m
Length of Day
12h 01m
Waning Gibbous, 49% of the Moon is Illuminated
Sep 27
Waning Gibbous
Oct 5
New
Oct 12
First Quarter
Oct 19
Full
Oct 27
Last Quarter

Hourly Weather History & Observations

Time (IST) Temp. Heat Index Dew Point Humidity Pressure Visibility Wind Dir Wind Speed Gust Speed Precip Events Conditions
12:10 AM 77.0 °F - 75.2 °F 94% 29.83 in - North - - N/A   Haze
2:10 AM 77.0 °F - 75.2 °F 94% 29.80 in 2.5 mi NNW 2.3 mph - N/A   Haze
3:10 AM 77.0 °F - 75.2 °F 94% 29.77 in 2.5 mi NNW 2.3 mph - N/A   Haze
4:10 AM 75.2 °F - 73.4 °F 94% 29.77 in 2.5 mi Calm Calm - N/A   Haze
5:10 AM 75.2 °F - 73.4 °F 94% 29.80 in 2.5 mi NNW 3.5 mph - N/A   Haze
5:40 AM 75.2 °F - 73.4 °F 94% 29.80 in 2.5 mi NNW 2.3 mph - N/A   Haze
6:10 AM 75.2 °F - 73.4 °F 94% 29.80 in 2.5 mi NNW 2.3 mph - N/A   Haze
7:10 AM 75.2 °F - 73.4 °F 94% 29.83 in 1.9 mi NNW 2.3 mph - N/A   Haze
7:40 AM 78.8 °F - 75.2 °F 89% 29.83 in 2.5 mi NW 2.3 mph - N/A   Haze
8:10 AM 80.6 °F 87.1 °F 77.0 °F 89% 29.83 in 2.5 mi WNW 3.5 mph - N/A   Haze
8:30 AM 82 °F - 77 °F 81% 29.81 in 2 mi NNW 3.5 mph - -   Haze
9:10 AM 82.4 °F 92.4 °F 78.8 °F 89% 29.86 in 3.1 mi WNW 3.5 mph - N/A   Haze
9:40 AM 84.2 °F 96.1 °F 78.8 °F 84% 29.86 in 3.1 mi WSW 3.5 mph - N/A   Haze
10:10 AM 84.2 °F 96.1 °F 78.8 °F 84% 29.86 in 3.7 mi West 4.6 mph - N/A   Scattered Clouds
10:40 AM 86.0 °F 99.3 °F 78.8 °F 79% 29.86 in 3.7 mi West 4.6 mph - N/A   Scattered Clouds
11:10 AM 86.0 °F 99.3 °F 78.8 °F 79% 29.83 in 3.7 mi WSW 3.5 mph - N/A   Scattered Clouds
11:30 AM 89 °F - 77 °F 59% 29.78 in 2 mi WSW 9.2 mph - -   Partly Cloudy
12:10 PM 89.6 °F 102.2 °F 77.0 °F 66% 29.80 in 3.7 mi SSW 5.8 mph - N/A   Scattered Clouds
12:40 PM 89.6 °F 102.2 °F 77.0 °F 66% 29.80 in 3.7 mi WSW 6.9 mph - N/A   Scattered Clouds
1:10 PM 89.6 °F 102.2 °F 77.0 °F 66% 29.80 in 3.7 mi WSW 6.9 mph - N/A   Scattered Clouds
1:40 PM 91.4 °F 107.2 °F 78.8 °F 66% 29.77 in 3.7 mi SW 3.5 mph - N/A   Unknown
2:10 PM 91.4 °F 107.2 °F 78.8 °F 66% 29.77 in 3.7 mi NW 6.9 mph - N/A   Mostly Cloudy
2:30 PM 88 °F - 76 °F 61% 29.68 in 2 mi WNW 4.6 mph - -   Partly Cloudy
2:40 PM 87.8 °F 99.7 °F 77.0 °F 70% 29.77 in 3.7 mi WNW 5.8 mph - N/A   Scattered Clouds
3:10 PM 87.8 °F 99.7 °F 77.0 °F 70% 29.74 in 3.7 mi WSW 2.3 mph - N/A   Scattered Clouds
3:40 PM 86.0 °F 95.1 °F 75.2 °F 70% 29.74 in 3.7 mi WSW 2.3 mph - N/A   Scattered Clouds
4:10 PM 86.0 °F 95.1 °F 75.2 °F 70% 29.74 in 3.7 mi WSW 3.5 mph - N/A   Scattered Clouds
4:40 PM 87.8 °F 97.6 °F 75.2 °F 66% 29.74 in 3.7 mi SW 2.3 mph - N/A   Scattered Clouds
5:10 PM 86.0 °F 95.1 °F 75.2 °F 70% 29.74 in 3.7 mi Calm Calm - N/A   Scattered Clouds
5:30 PM 86 °F - 78 °F 73% 29.69 in 2 mi Calm Calm - -   Partly Cloudy
6:10 PM 86.0 °F 99.3 °F 78.8 °F 79% 29.74 in 3.1 mi SW 2.3 mph - N/A   Haze
6:40 PM 84.2 °F 96.1 °F 78.8 °F 84% 29.74 in 3.1 mi WSW 3.5 mph - N/A   Haze
7:10 PM 84.2 °F 94.1 °F 77.0 °F 79% 29.77 in 2.5 mi WSW 2.3 mph - N/A   Haze
7:40 PM 82.4 °F 90.9 °F 77.0 °F 84% 29.77 in 2.5 mi Calm Calm - N/A   Haze
8:30 PM 80 °F - 76 °F 82% 29.76 in 1 mi NW 2.3 mph - -   Haze
8:40 PM 80.6 °F 86.2 °F 75.2 °F 84% 29.80 in 2.5 mi WNW 2.3 mph - N/A   Haze
9:10 PM 80.6 °F 86.2 °F 75.2 °F 84% 29.83 in 2.5 mi Calm Calm - N/A   Haze
9:40 PM 78.8 °F - 75.2 °F 89% 29.83 in 2.5 mi NW 3.5 mph - N/A   Haze
10:10 PM 78.8 °F - 75.2 °F 89% 29.83 in 2.5 mi WNW 3.5 mph - N/A   Haze
11:10 PM 78.8 °F - 75.2 °F 89% 29.83 in 2.5 mi Calm Calm - N/A   Haze
11:30 PM 79 °F - 76 °F 86% 29.79 in 1 mi Calm Calm - -   Haze